CW7693 Weather Reports


Display with metric or nautical units.
time (UTC)temp
F
wind
direction
speed
MPH
gust
MPH
rain 1hr
in
rain 24hr
in
rain mn
in
humidity
%
barometer
mb
20260506234502 47 121 0.0 0.0 0.00 0.28 0.00 91 1010.4
20260506233112 47 121 0.0 2.0 0.00 0.28 0.00 91 1010.3
20260506231503 47 80 2.0 4.0 0.00 0.28 0.00 91 1010.3
20260506230103 47 132 1.0 5.0 0.00 0.28 0.00 91 1010.1
20260506224502 47 154 0.0 2.0 0.00 0.28 0.00 91 1010.2
20260506223106 47 153 0.0 0.0 0.00 0.28 0.00 91 1010.2
20260506221612 47 153 0.0 3.0 0.00 0.28 0.00 91 1010.1
20260506220004 47 170 2.0 8.0 0.00 0.28 0.00 91 1010.0
20260506214603 47 261 0.0 2.0 0.00 0.28 0.28 92 1010.0
20260506213002 47 115 3.0 5.0 0.00 0.28 0.28 92 1009.9
20260506211601 46 151 0.0 3.0 0.00 0.28 0.28 92 1010.0
20260506210003 46 190 1.0 3.0 0.00 0.28 0.28 92 1009.9
20260506204604 46 210 0.0 3.0 0.00 0.28 0.28 92 1009.9
20260506203002 46 168 0.0 4.0 0.00 0.28 0.28 92 1009.8
20260506201603 46 176 0.0 4.0 0.00 0.28 0.28 91 1009.7
20260506200002 46 170 0.0 3.0 0.00 0.28 0.28 91 1009.6
20260506194603 46 130 1.0 4.0 0.00 0.28 0.28 91 1009.3
20260506193002 46 115 0.0 3.0 0.00 0.28 0.28 90 1009.0
20260506191602 47 118 0.0 3.0 0.00 0.28 0.28 90 1008.9
20260506190007 47 119 0.0 2.0 0.00 0.28 0.28 90 1008.7
20260506184611 47 119 0.0 4.0 0.00 0.28 0.28 89 1008.5
20260506183007 47 31 2.0 3.0 0.00 0.28 0.28 89 1008.2
20260506181624 48 155 0.0 3.0 0.00 0.28 0.28 88 1008.1
20260506180003 48 285 0.0 0.0 0.00 0.28 0.28 88 1008.0
20260506174602 48 284 0.0 3.0 0.02 0.28 0.28 88 1007.9
20260506173003 48 128 1.0 5.0 0.05 0.28 0.28 88 1007.6
20260506171606 47 171 3.0 8.0 0.06 0.28 0.28 88 1007.5
20260506170004 47 153 1.0 9.0 0.13 0.28 0.28 87 1007.2
20260506164614 48 168 3.0 8.0 0.10 0.26 0.26 86 1007.4
20260506163002 48 159 3.0 6.0 0.07 0.23 0.23 85 1007.7
20260506161503 49 152 7.0 11.0 0.06 0.21 0.21 82 1007.4
20260506160109 51 185 5.0 9.0 0.00 0.16 0.16 75 1007.4
20260506154605 51 92 5.0 13.0 0.00 0.16 0.16 73 1006.7
20260506153002 52 139 6.0 18.0 0.00 0.16 0.16 71 1006.3
20260506151602 52 360 8.0 21.0 0.00 0.16 0.16 72 1005.6
20260506150104 55 360 12.0 25.0 0.00 0.16 0.16 71 1005.1
20260506144506 59 327 2.0 6.0 0.00 0.16 0.16 68 1004.6
20260506143104 58 109 1.0 4.0 0.00 0.16 0.16 68 1004.4
20260506141502 57 360 1.0 3.0 0.00 0.16 0.16 74 1004.4
20260506140005 57 20 2.0 5.0 0.00 0.16 0.16 74 1004.5
20260506134603 56 309 2.0 5.0 0.00 0.16 0.16 78 1004.4
20260506133002 54 316 2.0 4.0 0.01 0.16 0.16 84 1004.7
20260506131602 52 360 0.0 3.0 0.01 0.16 0.16 87 1004.7
20260506130004 50 103 1.0 7.0 0.16 0.16 0.16 86 1005.1
20260506124609 49 55 4.0 9.0 0.16 0.16 0.16 86 1005.1
20260506123003 50 66 4.0 8.0 0.15 0.15 0.15 85 1005.0
20260506121604 50 328 1.0 12.0 0.15 0.15 0.15 82 1004.7
20260506120008 57 360 7.0 13.0 0.00 0.00 0.00 71 1004.2
20260506114614 58 276 8.0 13.0 0.00 0.00 0.00 69 1003.4
20260506113008 59 293 6.0 10.0 0.00 0.00 0.00 67 1003.2
20260506111602 59 321 5.0 12.0 0.00 0.00 0.00 66 1003.3
20260506110003 59 317 3.0 11.0 0.00 0.00 0.00 66 1003.6
20260506104606 59 300 7.0 12.0 0.00 0.00 0.00 66 1003.7
20260506103006 59 5 3.0 14.0 0.00 0.00 0.00 66 1003.6
20260506101604 59 304 5.0 11.0 0.00 0.00 0.00 66 1003.9
20260506094601 58 360 2.0 9.0 0.00 0.00 0.00 68 1004.2
20260506093003 57 328 5.0 9.0 0.00 0.00 0.00 69 1004.4
20260506091603 56 360 2.0 8.0 0.00 0.00 0.00 71 1004.6
20260506090003 55 360 2.0 7.0 0.00 0.00 0.00 74 1004.5
20260506084610 54 360 4.0 8.0 0.00 0.00 0.00 75 1004.6
20260506083002 53 27 2.0 4.0 0.00 0.00 0.00 76 1004.7
20260506081603 53 14 1.0 5.0 0.00 0.00 0.00 78 1004.8
20260506073003 51 255 1.0 3.0 0.00 0.00 0.00 80 1004.7
20260506071607 50 170 0.0 2.0 0.00 0.00 0.00 82 1004.6
20260506061604 48 178 0.0 3.0 0.00 0.00 0.00 87 1005.3
20260506044603 46 162 1.0 3.0 0.00 0.00 0.00 88 1005.7
20260506043003 47 223 1.0 4.0 0.00 0.00 0.00 89 1006.1
20260506041605 46 142 1.0 3.0 0.00 0.00 0.00 88 1005.9
20260506040003 46 142 1.0 4.0 0.00 0.00 0.00 87 1006.1
20260506034615 47 169 1.0 3.0 0.00 0.00 0.00 86 1006.2
20260506033002 47 169 1.0 3.0 0.00 0.00 0.00 87 1006.3
20260506031608 47 192 1.0 2.0 0.00 0.00 0.00 87 1006.2
20260506030011 47 192 0.0 4.0 0.00 0.00 0.00 86 1006.6
20260506024619 48 148 0.0 3.0 0.00 0.00 0.00 86 1006.7
20260506023006 48 141 1.0 3.0 0.00 0.00 0.00 87 1007.1
20260506021602 47 139 0.0 3.0 0.00 0.00 0.00 87 1007.0
20260506020002 47 161 2.0 4.0 0.00 0.00 0.00 87 1007.4
20260506014602 48 159 1.0 4.0 0.00 0.00 0.00 87 1007.5
20260506013002 47 152 1.0 4.0 0.00 0.00 0.00 87 1007.3
20260506011610 47 142 2.0 4.0 0.00 0.00 0.00 87 1007.6
20260506010006 47 150 0.0 0.0 0.00 0.00 0.00 87 1007.5
20260506004602 47 150 0.0 3.0 0.00 0.00 0.00 87 1007.8
20260506003002 48 190 0.0 2.0 0.00 0.00 0.00 86 1008.1
20260506001602 48 178 0.0 3.0 0.00 0.00 0.00 86 1008.0